This demonstration page uses our WeatherBlox Daily Observations layout. Learn more.

38.80484, -77.04692

Hourly Observations for April 13, 2019

Temp ( °F °C ) Dew Point ( °F °C ) Humidity (%) Winds ( mph kmh ) Pressure ( in mb ) Visibility ( mi km ) Precip ( " mm )
12:43 am 00:43 Cloudy 65 18.3 60 15.6 84 84 SSW 6 9 30.06 1018 10 16.0934 0 0
12:52 am 00:52 Cloudy 65 18.3 60 15.6 84 84 SSW 5 7 30.06 1018 10 16.0934 0 0
1:52 am 01:52 Cloudy 65 18.3 59 15 81 81 S 7 11 30.05 1018 10 16.0934 0 0
2:52 am 02:52 Cloudy 65 18.3 60 15.6 84 84 SSW 3 6 30.03 1017 10 16.0934 0 0
3:52 am 03:52 Cloudy with Light Rain 64 17.8 61 16.1 90 90 S 7 11 30.04 1017 6 9.65604 0 0.0254
3:59 am 03:59 Cloudy with Heavy Rain 64 17.8 61 16.1 90 90 S 7 11 30.05 1018 2.5 4.02335 0.04 1.016
4:01 am 04:01 Cloudy with Heavy Thunderstorms 64 17.8 61 16.1 90 90 S 6 9 30.05 1018 3 4.82802 0.06 1.524
4:28 am 04:28 Cloudy with Heavy Thunderstorms 64 17.8 62 16.7 93 93 Calm 30.06 1018 5 8.0467 0.15 3.81
4:44 am 04:44 Cloudy with Heavy Thunderstorms 63 17.2 61 16.1 93 93 E 3 6 30.05 1018 3 4.82802 0.26 6.604
4:52 am 04:52 Cloudy with Heavy Thunderstorms 63 17.2 62 16.7 97 97 SSE 3 6 30.05 1018 3 4.82802 0.32 8.128
4:59 am 04:59 Cloudy with Light Thunderstorms 64 17.8 61 16.1 90 90 ESE 3 6 30.05 1018 4 6.43736 0.02 0.508
5:03 am 05:03 Cloudy with Light Rain 63 17.2 61 16.1 93 93 E 5 7 30.04 1017 5 8.0467 0.02 0.508
5:23 am 05:23 Cloudy with Light Rain 63 17.2 61 16.1 93 93 Calm 30.05 1018 6 9.65604 0.03 0.762
5:52 am 05:52 Cloudy with Light Rain 64 17.8 62 16.7 93 93 Calm 30.07 1018 10 16.0934 0.04 1.016
6:22 am 06:22 Cloudy with Light Rain 63 17.2 61 16.1 93 93 S 3 6 30.08 1019 6 9.65604 0 0.0254
6:26 am 06:26 Cloudy with Light Rain 63 17.2 61 16.1 93 93 S 3 6 30.09 1019 6 9.65604 0 0.0254
6:45 am 06:45 Cloudy with Light Rain 63 17.2 60 15.6 90 90 E 3 6 30.07 1018 3 4.82802 0 0.0254
6:52 am 06:52 Cloudy with Light Rain 63 17.2 61 16.1 93 93 Calm 30.07 1018 4 6.43736 0 0.0254
7:02 am 07:02 Cloudy with Light Rain 63 17.2 61 16.1 93 93 SSE 3 6 30.08 1019 6 9.65604 0 0.0254
7:45 am 07:45 Cloudy 64 17.8 62 16.7 93 93 SSW 6 9 30.1 1019 10 16.0934 0 0.0254
7:52 am 07:52 Cloudy 64 17.8 62 16.7 93 93 SSW 5 7 30.1 1019 10 16.0934 0 0.0254
8:28 am 08:28 Mostly Cloudy 65 18.3 62 16.7 90 90 W 6 9 30.11 1020 10 16.0934 0 0
8:33 am 08:33 Mostly Cloudy 65 18.3 62 16.7 90 90 WSW 5 7 30.11 1020 10 16.0934 0 0
8:52 am 08:52 Cloudy with Light Rain 65 18.3 61 16.1 87 87 WSW 6 9 30.11 1020 10 16.0934 0.01 0.254
9:52 am 09:52 Mostly Cloudy 68 20 62 16.7 81 81 NW 3 6 30.1 1019 10 16.0934 0 0.0254
10:22 am 10:22 Mostly Cloudy 69 20.6 63 17.2 81 81 VRB 5 7 30.11 1020 10 16.0934 0 0
10:35 am 10:35 Mostly Cloudy 69 20.6 63 17.2 81 81 VRB 3 6 30.11 1020 10 16.0934 0 0
10:52 am 10:52 Mostly Cloudy 70 21.1 63 17.2 79 79 ENE 6 9 30.11 1020 10 16.0934 0 0
11:52 am 11:52 Mostly Cloudy 73 22.8 61 16.1 66 66 ENE 5 7 30.1 1019 10 16.0934 0 0
12:52 pm 12:52 Mostly Cloudy 75 23.9 54 12.2 48 48 Calm 30.09 1019 10 16.0934 0 0
1:52 pm 13:52 Mostly Cloudy 74 23.3 54 12.2 50 50 S 5 7 30.09 1019 10 16.0934 0 0
2:52 pm 14:52 Cloudy 74 23.3 56 13.3 54 54 S 9 15 30.08 1019 10 16.0934 0 0
3:52 pm 15:52 Cloudy 73 22.8 56 13.3 55 55 S 9 15 30.06 1018 10 16.0934 0 0
4:52 pm 16:52 Mostly Cloudy 72 22.2 53 11.7 52 52 S 10 17 30.04 1017 10 16.0934 0 0
5:52 pm 17:52 Cloudy 71 21.7 56 13.3 59 59 S 9 15 30.03 1017 10 16.0934 0 0
6:52 pm 18:52 Cloudy 69 20.6 57 13.9 66 66 S 9 15 30.04 1017 10 16.0934 0 0
7:52 pm 19:52 Cloudy 68 20 59 15 73 73 S 8 13 30.02 1017 10 16.0934 0 0
8:52 pm 20:52 Mostly Cloudy 66 18.9 60 15.6 81 81 S 7 11 30.02 1017 10 16.0934 0 0
9:52 pm 21:52 Partly Cloudy 65 18.3 60 15.6 84 84 S 6 9 30.02 1017 10 16.0934 0 0
10:52 pm 22:52 Mostly Cloudy 64 17.8 60 15.6 87 87 S 8 13 30.03 1017 10 16.0934 0 0
11:52 pm 23:52 Mostly Cloudy 64 17.8 60 15.6 87 87 S 7 11 30.01 1016 10 16.0934 0 0

Powered by AerisWeather